Tracking 18823 objects as of 22-October-2017
HD Live streaming from Space Station
objects crossing your sky now

STEP 2

Track STEP 2 now!
10-day predictions
STEP 2 is classified as:


NORAD ID: 23105
Int'l Code: 1994-029A
Perigee: 574.9 km
Apogee: 726.5 km
Inclination: 81.9 °
Period: 97.6 minutes
Semi major axis: 7021 km
RCS: 2.0652 m2 (large)
Launch date: May 19, 1994
Source: United States (US)
Launch site: AIR FORCE WESTERN TEST RANGE (AFWTR)
aabbcc
Your satellite tracking list
Your tracking list is empty





NASA's NSSDC Master Catalog

Two Line Element Set (TLE):
1 23105U 94029A   17295.58310219 +.00000310 +00000-0 +38354-4 0  9999
2 23105 081.9487 100.4033 0107960 020.8008 339.7543 14.75513823252778
Source of the keplerian elements: AFSPC